Palacios, TX

6:04 PM CDT on October 17, 2017 (GMT -0500)
Palacios Municipal

Weather History for KPSX - May, 2012

Change the Weather History Date:

Wednesday, May 2, 2012

  Actual Average Record
Temperature  
Mean Temperature 78 °F -  
Max Temperature 84 °F 79 °F 92 °F (1943)
Min Temperature 75 °F 66 °F 51 °F (2014)
Cooling Degree Days 14    
Growing Degree Days 28 (Base 50)    
Moisture  
Dew Point 71 °F    
Average Humidity 80    
Maximum Humidity 89    
Minimum Humidity 65    
Precipitation  
Precipitation 0.00 in - - ()
Sea Level Pressure  
Sea Level Pressure 29.88 in    
Wind  
Wind Speed 10 mph (SSE)    
Max Wind Speed 13 mph    
Max Gust Speed -    
Visibility 10 miles    
Events      
Averages and records for this station are not official NWS values.
T = Trace of Precipitation, MM = Missing Value Source: NWS Daily Summary

Daily Weather History Graph

Daily Weather History Graph

Search for Another Location

Airport or City:

Trip Planner

Search our weather history database for the weather conditions in past years. The results will help you decide how hot, cold, wet, or windy it might be!

Date:

Astronomy

May. 02, 2012 Rise Set
Actual Time 6:42 AM CDT 8:01 PM CDT
Civil Twilight 6:17 AM CDT 8:26 PM CDT
Nautical Twilight 5:47 AM CDT 8:56 PM CDT
Astronomical Twilight 5:17 AM CDT 9:27 PM CDT
Moon 4:30 PM CDT (5/2) 3:54 AM CDT (5/2)
Length of Visible Light 14h 08m
Length of Day
13h 18m
Waxing Gibbous, 83% of the Moon is Illuminated
May 2
Waxing Gibbous
May 5
Full
May 12
Last Quarter
May 20
New
May 28
First Quarter

Hourly Weather History & Observations

Time (CDT) Temp. Heat Index Dew Point Humidity Pressure Visibility Wind Dir Wind Speed Gust Speed Precip Events Conditions
12:53 AM 75.0 °F - 71.1 °F 87% 29.89 in 10.0 mi SE 12.7 mph - N/A   Partly Cloudy
1:53 AM 75.0 °F - 71.1 °F 87% 29.87 in 10.0 mi SE 11.5 mph - N/A   Partly Cloudy
2:53 AM 75.0 °F - 71.1 °F 87% 29.86 in 10.0 mi SE 10.4 mph - N/A   Partly Cloudy
3:11 AM 75.2 °F - 71.6 °F 89% 29.86 in 10.0 mi SE 9.2 mph - N/A   Mostly Cloudy
3:49 AM 75.2 °F - 71.6 °F 89% 29.86 in 10.0 mi SSE 10.4 mph - N/A   Scattered Clouds
3:53 AM 75.0 °F - 71.1 °F 87% 29.86 in 10.0 mi SSE 6.9 mph - N/A   Scattered Clouds
4:01 AM 75.2 °F - 71.6 °F 89% 29.86 in 10.0 mi SSE 8.1 mph - N/A   Mostly Cloudy
4:12 AM 75.2 °F - 71.6 °F 89% 29.86 in 10.0 mi SSE 9.2 mph - N/A   Scattered Clouds
4:53 AM 75.0 °F - 71.1 °F 87% 29.85 in 10.0 mi SSE 10.4 mph - N/A   Clear
5:53 AM 75.0 °F - 71.1 °F 87% 29.86 in 10.0 mi SSE 8.1 mph - N/A   Clear
6:53 AM 75.0 °F - 71.1 °F 87% 29.87 in 10.0 mi SSE 8.1 mph - N/A   Clear
7:53 AM 77.0 °F - 72.0 °F 84% 29.88 in 10.0 mi SSE 6.9 mph - N/A   Clear
8:53 AM 78.1 °F - 71.1 °F 79% 29.90 in 10.0 mi SSE 10.4 mph - N/A   Scattered Clouds
9:53 AM 80.1 °F 83.6 °F 71.1 °F 74% 29.91 in 10.0 mi South 9.2 mph - N/A   Scattered Clouds
10:53 AM 81.0 °F 84.9 °F 71.1 °F 72% 29.92 in 10.0 mi South 9.2 mph - N/A   Partly Cloudy
11:53 AM 81.0 °F 84.4 °F 70.0 °F 69% 29.92 in 10.0 mi South 9.2 mph - N/A   Partly Cloudy
12:53 PM 82.0 °F 85.9 °F 70.0 °F 67% 29.91 in 10.0 mi South 9.2 mph - N/A   Clear
1:53 PM 82.9 °F 87.0 °F 70.0 °F 65% 29.90 in 10.0 mi South 6.9 mph - N/A   Clear
2:53 PM 82.9 °F 87.5 °F 71.1 °F 67% 29.89 in 10.0 mi South 11.5 mph - N/A   Clear
3:53 PM 82.9 °F 87.5 °F 71.1 °F 67% 29.87 in 10.0 mi SSE 10.4 mph - N/A   Clear
4:53 PM 82.9 °F 87.5 °F 71.1 °F 67% 29.86 in 10.0 mi SSE 10.4 mph - N/A   Clear
5:53 PM 82.0 °F 86.3 °F 71.1 °F 69% 29.86 in 10.0 mi SSE 12.7 mph - N/A   Clear
6:53 PM 80.1 °F 83.6 °F 71.1 °F 74% 29.85 in 10.0 mi SSE 10.4 mph - N/A   Clear
7:53 PM 78.8 °F - 71.6 °F 78% 29.86 in 10.0 mi SSE 11.5 mph - N/A   Clear
8:53 PM 77.0 °F - 72.0 °F 84% 29.88 in 10.0 mi SSE 9.2 mph - N/A   Clear
9:53 PM 77.0 °F - 71.1 °F 82% 29.91 in 10.0 mi SSE 11.5 mph - N/A   Clear
10:53 PM 75.9 °F - 72.0 °F 87% 29.91 in 10.0 mi SSE 8.1 mph - N/A   Clear
11:53 PM 75.9 °F - 72.0 °F 87% 29.92 in 10.0 mi SSE 9.2 mph - N/A   Clear